When you browse on this site, cookies collect data to enhance your experience and personalize the content and advertising you see.
Visit our Privacy Policy to learn more. By continuing to use the site, you agree to this use of cookies and data.
  • In Latvia
  • List of Countries
  • For 7 days
  • Water Temperature
  • Weather Map
  • Weather Widgets
  • user-avatar
    Login

    Hourly Weather Bayguzha

    Today, 19 August, Monday

    Time Temperature Precipitation Wind Pressure Humidity
    00:00 +28°C° 0 mm 3 mps 760 mmHg 29%
    01:00 +28°C° 0 mm 3 mps 760 mmHg 29%
    02:00 +27°C° 0 mm 3 mps 760 mmHg 30%
    03:00 +27°C° 0 mm 3 mps 760 mmHg 30%
    04:00 +27°C° 0 mm 3 mps 761 mmHg 30%
    05:00 +27°C° 0 mm 3 mps 761 mmHg 31%
    06:00 +27°C° 0 mm 4 mps 761 mmHg 31%
    07:00 +29°C° 0 mm 4 mps 761 mmHg 28%
    08:00 +32°C° 0 mm 4 mps 761 mmHg 26%
    09:00 +34°C° 0 mm 5 mps 761 mmHg 23%
    10:00 +36°C° 0 mm 5 mps 761 mmHg 20%
    11:00 +38°C° 0 mm 6 mps 761 mmHg 18%
    12:00 +40°C° 0 mm 6 mps 761 mmHg 15%
    13:00 +40°C° 0 mm 6 mps 761 mmHg 14%
    14:00 +40°C° 0 mm 6 mps 761 mmHg 14%
    15:00 +41°C° 0 mm 5 mps 761 mmHg 14%
    16:00 +40°C° 0 mm 5 mps 761 mmHg 15%
    17:00 +38°C° 0 mm 4 mps 761 mmHg 16%
    18:00 +37°C° 0 mm 4 mps 760 mmHg 17%
    19:00 +36°C° 0 mm 4 mps 761 mmHg 19%
    20:00 +34°C° 0 mm 4 mps 761 mmHg 20%
    21:00 +33°C° 0 mm 4 mps 761 mmHg 21%
    22:00 +32°C° 0 mm 4 mps 761 mmHg 22%
    23:00 +30°C° 0 mm 4 mps 761 mmHg 23%

    Tomorrow, 20 August, Tuesday

    Time Temperature Precipitation Wind Pressure Humidity
    00:00 +30°C° 0 mm 4 mps 761 mmHg 25%
    01:00 +29°C° 0 mm 3 mps 762 mmHg 26%
    02:00 +28°C° 0 mm 3 mps 762 mmHg 28%
    03:00 +27°C° 0 mm 2 mps 762 mmHg 29%
    04:00 +27°C° 0 mm 2 mps 762 mmHg 30%
    05:00 +28°C° 0 mm 2 mps 762 mmHg 31%
    06:00 +28°C° 0 mm 1 mps 762 mmHg 31%
    07:00 +30°C° 0 mm 2 mps 762 mmHg 28%
    08:00 +32°C° 0 mm 2 mps 762 mmHg 24%
    09:00 +35°C° 0 mm 2 mps 763 mmHg 20%
    10:00 +36°C° 0 mm 2 mps 762 mmHg 18%
    11:00 +37°C° 0 mm 2 mps 762 mmHg 16%
    12:00 +38°C° 0 mm 2 mps 762 mmHg 14%
    13:00 +39°C° 0 mm 3 mps 762 mmHg 13%
    14:00 +39°C° 0 mm 3 mps 761 mmHg 12%
    15:00 +39°C° 0 mm 3 mps 761 mmHg 11%
    16:00 +39°C° 0 mm 2 mps 761 mmHg 13%
    17:00 +38°C° 0 mm 2 mps 761 mmHg 14%
    18:00 +36°C° 0 mm 1 mps 761 mmHg 16%
    19:00 +35°C° 0 mm 2 mps 761 mmHg 16%
    20:00 +34°C° 0 mm 2 mps 761 mmHg 17%
    21:00 +31°C° 0 mm 2 mps 761 mmHg 18%
    22:00 +30°C° 0 mm 2 mps 761 mmHg 20%
    23:00 +30°C° 0 mm 2 mps 761 mmHg 23%

    Day after tomorrow, 21 August, Wednesday

    Time Temperature Precipitation Wind Pressure Humidity
    00:00 +29°C° 0 mm 3 mps 761 mmHg 25%
    01:00 +28°C° 0 mm 2 mps 761 mmHg 28%
    02:00 +27°C° 0 mm 2 mps 761 mmHg 30%
    03:00 +26°C° 0 mm 1 mps 761 mmHg 33%
    04:00 +26°C° 0 mm 2 mps 761 mmHg 41%
    05:00 +26°C° 0 mm 4 mps 761 mmHg 49%
    06:00 +26°C° 0 mm 5 mps 761 mmHg 57%
    07:00 +27°C° 0 mm 5 mps 762 mmHg 54%
    08:00 +29°C° 0 mm 6 mps 762 mmHg 51%
    09:00 +32°C° 0 mm 6 mps 762 mmHg 48%
    10:00 +33°C° 0 mm 6 mps 762 mmHg 43%
    11:00 +34°C° 0 mm 6 mps 762 mmHg 38%
    12:00 +36°C° 0 mm 6 mps 761 mmHg 33%
    13:00 +36°C° 0 mm 6 mps 761 mmHg 32%
    14:00 +36°C° 0 mm 6 mps 761 mmHg 31%
    15:00 +36°C° 0 mm 5 mps 761 mmHg 30%
    16:00 +35°C° 0 mm 5 mps 761 mmHg 30%
    17:00 +34°C° 0 mm 6 mps 761 mmHg 30%
    18:00 +34°C° 0 mm 6 mps 761 mmHg 30%
    19:00 +32°C° 0 mm 5 mps 761 mmHg 33%
    20:00 +30°C° 0 mm 5 mps 761 mmHg 36%
    21:00 +28°C° 0 mm 5 mps 762 mmHg 40%
    22:00 +28°C° 0 mm 5 mps 762 mmHg 45%
    23:00 +27°C° 0 mm 5 mps 762 mmHg 50%

    22 August, Thursday

    Time Temperature Precipitation Wind Pressure Humidity
    00:00 +26°C° 0 mm 5 mps 762 mmHg 55%
    01:00 +25°C° 0 mm 5 mps 762 mmHg 58%
    02:00 +25°C° 0 mm 4 mps 762 mmHg 62%
    03:00 +23°C° 0 mm 4 mps 762 mmHg 65%
    04:00 +23°C° 0 mm 4 mps 762 mmHg 65%
    05:00 +23°C° 0 mm 4 mps 762 mmHg 65%
    06:00 +23°C° 0 mm 5 mps 762 mmHg 65%
    07:00 +25°C° 0 mm 5 mps 762 mmHg 59%
    08:00 +26°C° 0 mm 5 mps 762 mmHg 53%
    09:00 +28°C° 0 mm 5 mps 762 mmHg 47%
    10:00 +29°C° 0 mm 5 mps 762 mmHg 44%
    11:00 +30°C° 0 mm 4 mps 762 mmHg 41%
    12:00 +32°C° 0 mm 4 mps 762 mmHg 38%
    13:00 +33°C° 0 mm 4 mps 761 mmHg 36%
    14:00 +34°C° 0 mm 4 mps 761 mmHg 33%
    15:00 +35°C° 0 mm 4 mps 761 mmHg 31%
    16:00 +34°C° 0 mm 4 mps 761 mmHg 31%
    17:00 +34°C° 0 mm 3 mps 760 mmHg 32%
    18:00 +34°C° 0 mm 3 mps 760 mmHg 32%
    19:00 +31°C° 0 mm 3 mps 760 mmHg 35%
    20:00 +30°C° 0 mm 3 mps 761 mmHg 37%
    21:00 +29°C° 0 mm 3 mps 761 mmHg 40%
    22:00 +28°C° 0 mm 3 mps 761 mmHg 42%
    23:00 +28°C° 0 mm 3 mps 761 mmHg 43%

    23 August, Friday

    Time Temperature Precipitation Wind Pressure Humidity
    00:00 +27°C° 0 mm 3 mps 761 mmHg 45%
    01:00 +27°C° 0 mm 3 mps 761 mmHg 45%
    02:00 +26°C° 0 mm 3 mps 761 mmHg 44%
    03:00 +26°C° 0 mm 3 mps 761 mmHg 44%
    04:00 +26°C° 0 mm 3 mps 761 mmHg 44%
    05:00 +26°C° 0 mm 3 mps 761 mmHg 43%
    06:00 +26°C° 0 mm 3 mps 761 mmHg 42%
    07:00 +28°C° 0 mm 3 mps 761 mmHg 37%
    08:00 +30°C° 0 mm 3 mps 761 mmHg 32%
    09:00 +33°C° 0 mm 3 mps 761 mmHg 27%
    10:00 +34°C° 0 mm 3 mps 761 mmHg 26%
    11:00 +35°C° 0 mm 3 mps 760 mmHg 25%
    12:00 +36°C° 0 mm 3 mps 760 mmHg 24%
    13:00 +36°C° 0 mm 2 mps 760 mmHg 23%
    14:00 +37°C° 0 mm 2 mps 760 mmHg 22%
    15:00 +36°C° 0 mm 1 mps 759 mmHg 21%
    16:00 +35°C° 0 mm 1 mps 759 mmHg 23%
    17:00 +35°C° 0 mm 1 mps 759 mmHg 24%
    18:00 +34°C° 0 mm 1 mps 759 mmHg 26%
    19:00 +34°C° 0 mm 2 mps 759 mmHg 27%
    20:00 +32°C° 0 mm 2 mps 759 mmHg 27%
    21:00 +31°C° 0 mm 3 mps 759 mmHg 28%
    22:00 +30°C° 0 mm 2 mps 759 mmHg 29%
    23:00 +30°C° 0 mm 2 mps 758 mmHg 30%

    24 August, Saturday

    Time Temperature Precipitation Wind Pressure Humidity
    00:00 +30°C° 0 mm 2 mps 758 mmHg 31%
    01:00 +29°C° 0 mm 2 mps 758 mmHg 32%
    02:00 +29°C° 0 mm 3 mps 758 mmHg 33%
    03:00 +28°C° 0 mm 3 mps 758 mmHg 34%
    04:00 +28°C° 0 mm 3 mps 758 mmHg 35%
    05:00 +28°C° 0 mm 3 mps 758 mmHg 35%
    06:00 +28°C° 0 mm 3 mps 758 mmHg 36%
    07:00 +29°C° 0 mm 4 mps 757 mmHg 32%
    08:00 +32°C° 0 mm 4 mps 757 mmHg 29%
    09:00 +34°C° 0 mm 5 mps 757 mmHg 25%
    10:00 +35°C° 0 mm 5 mps 757 mmHg 23%
    11:00 +36°C° 0 mm 5 mps 756 mmHg 21%
    12:00 +39°C° 0 mm 5 mps 756 mmHg 20%
    13:00 +39°C° 0 mm 6 mps 755 mmHg 20%
    14:00 +39°C° 0 mm 6 mps 755 mmHg 20%
    15:00 +39°C° 0 mm 6 mps 754 mmHg 20%
    16:00 +35°C° 0 mm 7 mps 754 mmHg 33%
    17:00 +31°C° 0 mm 9 mps 754 mmHg 47%
    18:00 +27°C° 0 mm 10 mps 754 mmHg 60%
    19:00 +26°C° 0.8 mm 9 mps 754 mmHg 63%
    20:00 +23°C° 0.8 mm 7 mps 755 mmHg 67%
    21:00 +22°C° 0.8 mm 6 mps 755 mmHg 71%
    22:00 +21°C° 0.4 mm 5 mps 755 mmHg 70%
    23:00 +21°C° 0.4 mm 5 mps 756 mmHg 70%
    Show more